RYR6NY EIDW-EIKY

Flight info

Callsign RYR6NY
Flight time N/A
Altitude 24000
Route INKUR8E INKUR L975 SHA DCT KER
Aircraft B738/M-SDE2E3FGHIRWXY/LB1

Departure

Time N/A
Airport Dublin Airport (EIDW)

Arrival

Time 2026-04-25 21:57
Airport Kerry Airport (EIKY)
Time Latitude Longitude Altitude Speed Heading
2026-04-25 21:33 53.45322 -7.67824 24192 ft 311 kts 229°
2026-04-25 21:33 53.43921 -7.70591 24194 ft 313 kts 229°
2026-04-25 21:33 53.42495 -7.73402 24178 ft 322 kts 229°
2026-04-25 21:34 53.41001 -7.76341 24191 ft 338 kts 229°
2026-04-25 21:34 53.39460 -7.79353 24196 ft 341 kts 227°
2026-04-25 21:34 53.37835 -7.82225 24192 ft 339 kts 225°
2026-04-25 21:34 53.36161 -7.84994 24194 ft 337 kts 224°
2026-04-25 21:35 53.34482 -7.87726 24195 ft 336 kts 224°
2026-04-25 21:35 53.32806 -7.90450 24195 ft 336 kts 224°
2026-04-25 21:35 53.31137 -7.93172 24195 ft 335 kts 224°
2026-04-25 21:35 53.29471 -7.95900 24195 ft 335 kts 224°
2026-04-25 21:36 53.27806 -7.98631 24195 ft 336 kts 224°
2026-04-25 21:36 53.26146 -8.01359 24202 ft 336 kts 224°
2026-04-25 21:36 53.24477 -8.04098 24201 ft 337 kts 224°
2026-04-25 21:36 53.22806 -8.06841 24199 ft 338 kts 224°
2026-04-25 21:37 53.21131 -8.09590 24199 ft 338 kts 224°
2026-04-25 21:37 53.20562 -8.10521 24199 ft 338 kts 224°
2026-04-25 21:37 53.17767 -8.15097 24198 ft 339 kts 224°
2026-04-25 21:37 53.16098 -8.17826 24053 ft 337 kts 224°
2026-04-25 21:38 53.14440 -8.20535 23855 ft 332 kts 224°
2026-04-25 21:38 53.12790 -8.23225 23495 ft 331 kts 224°
2026-04-25 21:38 53.11155 -8.25891 23150 ft 327 kts 224°
2026-04-25 21:38 53.09533 -8.28532 22791 ft 325 kts 224°
2026-04-25 21:39 53.07926 -8.31144 22450 ft 322 kts 224°
2026-04-25 21:39 53.06329 -8.33737 22111 ft 319 kts 224°
2026-04-25 21:39 53.04743 -8.36305 21775 ft 317 kts 224°
2026-04-25 21:39 53.03167 -8.38850 21440 ft 315 kts 224°
2026-04-25 21:40 53.01604 -8.41369 21118 ft 313 kts 224°
2026-04-25 21:40 53.00573 -8.43031 20897 ft 311 kts 224°
2026-04-25 21:40 52.99025 -8.45524 20572 ft 309 kts 224°
2026-04-25 21:40 52.97484 -8.48002 20248 ft 307 kts 224°
2026-04-25 21:41 52.95953 -8.50463 19932 ft 306 kts 224°
2026-04-25 21:41 52.94430 -8.52910 19691 ft 304 kts 224°
2026-04-25 21:41 52.92910 -8.55348 19462 ft 304 kts 224°
2026-04-25 21:41 52.91384 -8.57759 19202 ft 303 kts 220°
2026-04-25 21:42 52.89613 -8.59656 18896 ft 303 kts 209°
2026-04-25 21:42 52.87746 -8.61288 18554 ft 303 kts 208°
2026-04-25 21:42 52.85872 -8.62895 18187 ft 302 kts 208°
2026-04-25 21:42 52.84025 -8.64482 17693 ft 299 kts 208°
2026-04-25 21:43 52.82185 -8.66072 17162 ft 297 kts 208°
2026-04-25 21:43 52.80364 -8.67656 16652 ft 296 kts 208°
2026-04-25 21:43 52.78546 -8.69242 16149 ft 294 kts 208°
2026-04-25 21:43 52.76747 -8.70815 15648 ft 292 kts 208°
2026-04-25 21:44 52.74959 -8.72382 15161 ft 290 kts 208°
2026-04-25 21:44 52.73181 -8.73940 14673 ft 289 kts 208°
2026-04-25 21:44 52.69651 -8.77033 13696 ft 286 kts 208°
2026-04-25 21:45 52.67899 -8.78567 13163 ft 284 kts 208°
2026-04-25 21:45 52.66742 -8.79579 12817 ft 283 kts 208°
2026-04-25 21:45 52.64423 -8.81607 12130 ft 281 kts 207°
2026-04-25 21:45 52.62699 -8.83113 11638 ft 280 kts 207°
2026-04-25 21:46 52.60985 -8.84609 11137 ft 278 kts 207°
2026-04-25 21:46 52.59282 -8.86094 10660 ft 277 kts 207°
2026-04-25 21:46 52.57585 -8.87572 10180 ft 275 kts 207°
2026-04-25 21:46 52.55896 -8.89043 9659 ft 274 kts 207°
2026-04-25 21:47 52.54216 -8.90504 9133 ft 272 kts 207°
2026-04-25 21:47 52.52548 -8.91954 8620 ft 271 kts 207°
2026-04-25 21:47 52.50889 -8.93395 8110 ft 269 kts 207°
2026-04-25 21:47 52.49239 -8.94826 7603 ft 268 kts 207°
2026-04-25 21:48 52.47595 -8.96251 7067 ft 268 kts 207°
2026-04-25 21:48 52.45940 -8.97685 6454 ft 269 kts 207°
2026-04-25 21:48 52.44312 -8.99094 5893 ft 260 kts 207°
2026-04-25 21:48 52.42747 -9.00448 5386 ft 248 kts 207°
2026-04-25 21:49 52.41253 -9.01740 4876 ft 238 kts 207°
2026-04-25 21:49 52.39813 -9.02983 4345 ft 231 kts 207°
2026-04-25 21:49 52.38414 -9.04190 3832 ft 225 kts 207°
2026-04-25 21:49 52.37043 -9.05371 3322 ft 220 kts 207°
2026-04-25 21:50 52.35716 -9.06514 3100 ft 216 kts 207°
2026-04-25 21:50 52.34368 -9.07674 3066 ft 218 kts 208°
2026-04-25 21:50 52.33036 -9.08821 3035 ft 214 kts 208°
2026-04-25 21:50 52.32164 -9.09572 3023 ft 214 kts 208°
2026-04-25 21:51 52.30432 -9.11060 2956 ft 209 kts 208°
2026-04-25 21:51 52.29136 -9.12172 2985 ft 206 kts 208°
2026-04-25 21:51 52.27916 -9.13218 3014 ft 196 kts 207°
2026-04-25 21:51 52.26732 -9.14231 2912 ft 191 kts 208°
2026-04-25 21:52 52.25723 -9.15568 2889 ft 187 kts 242°
2026-04-25 21:52 52.25418 -9.17546 2983 ft 179 kts 256°
2026-04-25 21:52 52.25030 -9.19490 3034 ft 183 kts 249°
2026-04-25 21:52 52.24589 -9.21459 3052 ft 185 kts 249°
2026-04-25 21:53 52.24160 -9.23441 3029 ft 185 kts 250°
2026-04-25 21:53 52.23740 -9.25415 3027 ft 183 kts 250°
2026-04-25 21:53 52.23326 -9.27380 3042 ft 183 kts 250°
2026-04-25 21:53 52.22913 -9.29340 3034 ft 182 kts 250°
2026-04-25 21:54 52.22503 -9.31288 3017 ft 180 kts 250°
2026-04-25 21:54 52.22098 -9.33212 2811 ft 178 kts 251°
2026-04-25 21:54 52.21698 -9.35115 2534 ft 176 kts 252°
2026-04-25 21:54 52.21304 -9.36996 2255 ft 175 kts 252°
2026-04-25 21:55 52.20911 -9.38867 1985 ft 174 kts 252°
2026-04-25 21:55 52.20522 -9.40728 1698 ft 173 kts 251°
2026-04-25 21:55 52.20137 -9.42564 1407 ft 167 kts 251°
2026-04-25 21:55 52.19772 -9.44306 1175 ft 155 kts 251°
2026-04-25 21:56 52.19437 -9.45912 903 ft 146 kts 252°
2026-04-25 21:56 52.19226 -9.46949 732 ft 146 kts 253°
2026-04-25 21:56 52.18790 -9.49049 438 ft 148 kts 252°
2026-04-25 21:56 52.18461 -9.50631 206 ft 147 kts 251°
2026-04-25 21:57 52.18139 -9.52144 99 ft 126 kts 251°
2026-04-25 21:57 52.17930 -9.53145 101 ft 73 kts 251°
2026-04-25 21:57 52.17874 -9.53548 103 ft 18 kts 317°
2026-04-25 21:57 52.17923 -9.53582 100 ft 4 kts 345°
2026-04-25 21:58 52.17950 -9.53596 102 ft 4 kts 342°
2026-04-25 21:58 52.17977 -9.53610 102 ft 4 kts 342°
2026-04-25 21:58 52.18010 -9.53633 100 ft 6 kts 328°
2026-04-25 21:58 52.18019 -9.53643 101 ft 2 kts 328°
2026-04-25 21:59 52.18038 -9.53661 99 ft 4 kts 329°
2026-04-25 21:59 52.18073 -9.53677 99 ft 7 kts 356°
2026-04-25 21:59 52.18094 -9.53652 102 ft 3 kts 78°
2026-04-25 22:00 52.18095 -9.53646 94 ft 0 kts 80°